This demonstration page uses our WeatherBlox Daily Observations layout. Learn more.

Left ArrowRight Arrow

41.55636, -103.73856

Hourly Observations for August 17, 2022

Temp ( °F °C ) Dew Point ( °F °C ) Humidity (%) Winds ( mph kmh ) Pressure ( in mb ) Visibility ( mi km ) Precip ( " mm )
12:58 am 00:58 Clear 62 16.4 55 12.7 79 79 SSW 8 13 30.07 1018 10 16 0.00 0.00
1:58 am 01:58 Clear 60 15.7 55 12.6 82 82 S 10 17 30.06 1018 10 16 0.00 0.00
2:58 am 02:58 Clear 61 15.9 56 13.4 85 85 SE 3 6 30.06 1018 10 16 0.00 0.00
3:58 am 03:58 Clear 56 13.6 54 12.2 91 91 SE 5 7 30.07 1018 10 16 0.00 0.00
4:58 am 04:58 Mostly Clear with Light Rain 57 13.8 55 12.8 94 94 SW 6 9 30.08 1019 1 1 0.01 0.13
5:58 am 05:58 Mostly Clear with Light Rain 57 14 56 13.2 95 95 WSW 6 9 30.09 1019 1 1 0.01 0.13
6:58 am 06:58 Partly Cloudy with Light Rain 57 14 56 13.2 95 95 SW 10 17 30.11 1020 1 1 0.01 0.13
7:58 am 07:58 Sunny 59 15 58 14.2 95 95 SW 7 11 30.11 1020 10 16 0.01 0.13
8:58 am 08:58 Sunny 65 18.4 56 13.5 73 73 WSW 5 7 30.11 1020 10 16 0.00 0.00
9:58 am 09:58 Sunny 69 20.8 56 13.5 63 63 Calm 30.10 1019 10 16 0.00 0.00
10:58 am 10:58 Sunny 76 24.3 53 11.6 45 45 W 6 9 30.08 1019 10 16 0.00 0.00
11:58 am 11:58 Sunny 81 27 48 8.9 32 32 S 6 9 30.05 1018 10 16 0.00 0.00
12:58 pm 12:58 Sunny 84 28.8 38 3.6 20 20 NE 5 7 30.04 1017 10 16 0.00 0.00
1:58 pm 13:58 Sunny 85 29.6 41 4.9 21 21 ENE 12 19 30.01 1016 10 16 0.00 0.00
2:58 pm 14:58 Sunny 86 29.9 39 3.8 19 19 NNE 8 13 30.00 1016 10 16 0.00 0.00
3:58 pm 15:58 Sunny 86 30.1 36 2.3 17 17 E 7 11 30.00 1016 10 16 0.00 0.00
4:58 pm 16:58 Sunny 86 30.1 38 3.2 18 18 E 7 11 29.99 1016 10 16 0.00 0.00
5:58 pm 17:58 Sunny 86 29.8 36 2.1 17 17 ESE 10 17 29.98 1015 10 16 0.00 0.00
6:58 pm 18:58 Sunny 83 28.6 35 1.9 18 18 ESE 7 11 29.97 1015 10 16 0.00 0.00
7:58 pm 19:58 Clear 75 24.1 36 2.3 24 24 SE 13 20 30.00 1016 10 16 0.00 0.00
8:58 pm 20:58 Mostly Cloudy 75 23.8 39 3.7 27 27 SE 14 22 30.01 1016 10 16 0.00 0.00
9:58 pm 21:58 Mostly Clear 72 22 50 10.2 47 47 S 17 28 30.03 1017 10 16 0.00 0.00
10:58 pm 22:58 Clear 69 20.3 53 11.5 57 57 ESE 10 17 30.05 1018 10 16 0.00 0.00
11:58 pm 23:58 Clear 65 18.3 53 11.6 65 65 Calm 30.01 1016 10 16 0.00 0.00

Powered by AerisWeather